Track STARLINK-3192 now! 10-day predictions STARLINK-3192 is classified as:
1 49767U 21115AV 22182.38978602 .00000040 00000-0 20629-4 0 9998 2 49767 53.2180 67.3975 0002298 63.3637 296.7591 15.08834156 32285